Location: Borea
(45.6167°N, 23.0167°E)
Time: 02:45:25
(UTC+00:00)

OPS 8068 - Pass Details

Date: 23 February 2024
Orbit: 631 x 963 km, 98.3° (Epoch: 13 April)

Event Time Altitude Azimuth Distance (km) Brightness Sun altitude
Rises 04:25:11 0° 211° (SSW) 2,911 ? -10.0°
Reaches altitude 10° 04:28:13 10° 235° (SW) 2,018 ? -9.4°
Maximum altitude 04:30:44 15° 270° (W) 1,731 ? -9.0°
Drops below altitude 10° 04:33:18 10° 306° (NW) 2,071 ? -8.6°
Sets 04:36:30 0° 330° (NNW) 3,035 ? -8.0°
